Location: Bermeries
(50.2863°N, 3.7551°E)
Time: 05:32:05
(UTC+00:00)

Cosmos 2292 - Pass Details

Date: 23 May 2024
Orbit: 393 x 1649 km, 83.0° (Epoch: 19 June)

Event Time Altitude Azimuth Distance (km) Brightness Sun altitude
Rises 02:37:23 0° 347° (NNW) 2,314 8.6 -9.2°
Reaches altitude 10° 02:39:17 10° 343° (NNW) 1,476 7.5 -9.0°
Maximum altitude 02:42:20 59° 263° (W) 514 4.4 -8.6°
Drops below altitude 10° 02:45:53 10° 183° (S) 1,722 6.9 -8.3°
Enters shadow 02:47:30 - 181° (S) 2,421 7.7 -8.1°
